Fort Myers, FL

10:30 AM EDT on September 29, 2016 (GMT -0400)
Page

Weather History for KFMY - July, 2014

Change the Weather History Date:

Tuesday, July 29, 2014

  Actual Average Record
Temperature  
Mean Temperature 83 °F 83 °F  
Max Temperature 91 °F 92 °F 98 °F (1942)
Min Temperature 75 °F 75 °F 68 °F (1956)
Degree Days  
Heating Degree Days 0 0  
Month to date heating degree days 0 0  
Since 1 June heating degree days 0 0  
Since 1 July heating degree days 0 0  
Cooling Degree Days 18 18  
Month to date cooling degree days 540 522  
Year to date cooling degree days 2261 2113  
Since 1 June cooling degree days 1070 1047  
Growing Degree Days 32 (Base 50)    
Moisture  
Dew Point 75 °F    
Average Humidity 76    
Maximum Humidity 91    
Minimum Humidity 64    
Precipitation  
Precipitation 0.67 in 0.29 in 4.06 in (1965)
Month to date precipitation 8.61 8.44  
Year to date precipitation 22.43 30.33  
Sea Level Pressure  
Sea Level Pressure 29.99 in    
Wind  
Wind Speed 6 mph (WSW)    
Max Wind Speed 32 mph    
Max Gust Speed 39 mph    
Visibility 9 miles    
Events Rain , Thunderstorm    
T = Trace of Precipitation, MM = Missing Value Source: NWS Daily Summary

Daily Weather History Graph

Daily Weather History Graph

Search for Another Location

Airport or City:

Trip Planner

Search our weather history database for the weather conditions in past years. The results will help you decide how hot, cold, wet, or windy it might be!

Date:

Astronomy

Jul. 29, 2014 Rise Set
Actual Time 6:50 AM EDT 8:16 PM EDT
Civil Twilight 6:25 AM EDT 8:41 PM EDT
Nautical Twilight 5:55 AM EDT 9:11 PM EDT
Astronomical Twilight 5:24 AM EDT 9:42 PM EDT
Moon 9:07 AM EDT 9:50 PM EDT
Length of Visible Light 14h 15m
Length of Day
13h 25m
Waxing Crescent, 7% of the Moon is Illuminated
Jul 29
Waxing Crescent
Aug 3
First Quarter
Aug 10
Full
Aug 17
Last Quarter
Aug 25
New

Hourly Weather History & Observations

Time (EDT) Temp. Heat Index Dew Point Humidity Pressure Visibility Wind Dir Wind Speed Gust Speed Precip Events Conditions
12:53 AM 82.0 °F 88.6 °F 75.0 °F 79% 30.02 in 10.0 mi SSW 3.5 mph - N/A   Clear
1:53 AM 81.0 °F 87.3 °F 75.9 °F 85% 30.02 in 10.0 mi Calm Calm - N/A   Clear
2:53 AM 81.0 °F 86.7 °F 75.0 °F 82% 30.00 in 10.0 mi Calm Calm - N/A   Clear
3:53 AM 81.0 °F 86.7 °F 75.0 °F 82% 29.98 in 10.0 mi South 3.5 mph - N/A   Partly Cloudy
4:53 AM 82.0 °F 89.4 °F 75.9 °F 82% 29.97 in 10.0 mi West 8.1 mph - N/A   Partly Cloudy
5:53 AM 81.0 °F 87.3 °F 75.9 °F 85% 29.97 in 10.0 mi WSW 4.6 mph - N/A   Clear
6:53 AM 82.0 °F 89.4 °F 75.9 °F 82% 29.98 in 10.0 mi Calm Calm - N/A   Scattered Clouds
7:53 AM 82.0 °F 87.4 °F 73.0 °F 74% 29.99 in 10.0 mi SW 5.8 mph 16.1 mph 0.01 in   Scattered Clouds
8:17 AM 81.0 °F 86.7 °F 75.0 °F 82% 29.99 in 0.8 mi West 9.2 mph 31.1 mph 0.00 in Rain Light Rain
8:24 AM 80.1 °F 85.4 °F 75.9 °F 87% 29.99 in 10.0 mi West 4.6 mph 31.1 mph 0.12 in Rain Light Rain
8:39 AM 77.0 °F - 73.0 °F 88% 30.01 in 2.0 mi NW 25.3 mph 39.1 mph 0.23 in Rain Heavy Rain
8:48 AM 75.2 °F - 73.4 °F 94% 30.00 in 6.0 mi North 9.2 mph - 0.54 in Rain Heavy Rain
8:53 AM 75.9 °F - 72.0 °F 87% 30.01 in 6.0 mi North 5.8 mph - 0.56 in Rain Light Rain
10:16 AM 80.1 °F 84.2 °F 73.0 °F 79% 30.02 in 2.0 mi West 16.1 mph - 0.03 in Rain Rain
10:21 AM 77.0 °F - 72.0 °F 84% 30.02 in 10.0 mi West 4.6 mph - 0.10 in Rain Light Rain
10:53 AM 82.9 °F 90.2 °F 75.0 °F 77% 30.02 in 10.0 mi West 6.9 mph - 0.10 in   Clear
11:53 AM 87.1 °F 99.8 °F 78.1 °F 74% 30.02 in 10.0 mi WSW 10.4 mph - N/A   Clear
12:15 PM 87.1 °F 98.8 °F 77.0 °F 72% 30.01 in 10.0 mi WSW 11.5 mph - N/A Thunderstorm Partly Cloudy
12:32 PM 87.1 °F 97.3 °F 75.9 °F 69% 30.00 in 10.0 mi West 9.2 mph - N/A   Partly Cloudy
12:53 PM 87.1 °F 97.3 °F 75.9 °F 69% 30.01 in 10.0 mi WSW 10.4 mph - N/A   Partly Cloudy
1:53 PM 89.1 °F 100.2 °F 75.9 °F 65% 30.00 in 10.0 mi West 12.7 mph - N/A   Mostly Cloudy
2:53 PM 89.1 °F 99.1 °F 75.0 °F 63% 29.99 in 10.0 mi West 12.7 mph - N/A   Scattered Clouds
3:16 PM 89.1 °F 100.2 °F 75.9 °F 65% 29.98 in 10.0 mi SW 13.8 mph 21.9 mph N/A Thunderstorm Thunderstorm
3:25 PM 87.1 °F 95.4 °F 73.9 °F 65% 29.97 in 10.0 mi SW 11.5 mph - N/A Thunderstorm Scattered Clouds
3:35 PM 87.1 °F 96.3 °F 75.0 °F 67% 29.97 in 10.0 mi SSW 6.9 mph - N/A Thunderstorm Thunderstorm
3:50 PM 89.6 °F 102.2 °F 77.0 °F 66% 29.97 in 10.0 mi WSW 15.0 mph - N/A Thunderstorm Partly Cloudy
3:53 PM 88.0 °F 100.2 °F 77.0 °F 70% 29.97 in 10.0 mi WSW 17.3 mph - N/A Thunderstorm Scattered Clouds
4:00 PM 88.0 °F 100.2 °F 77.0 °F 70% 29.97 in 10.0 mi SW 11.5 mph - N/A   Scattered Clouds
4:53 PM 88.0 °F 97.5 °F 75.0 °F 65% 29.97 in 10.0 mi West 15.0 mph - N/A   Partly Cloudy
5:17 PM 88.0 °F 98.5 °F 75.9 °F 67% 29.97 in 10.0 mi West 16.1 mph - N/A Thunderstorm Mostly Cloudy
5:36 PM 88.0 °F 98.5 °F 75.9 °F 67% 29.97 in 10.0 mi West 15.0 mph - N/A   Scattered Clouds
6:14 PM 87.1 °F 97.3 °F 75.9 °F 69% 29.97 in 10.0 mi WNW 15.0 mph 20.7 mph N/A Thunderstorm Thunderstorm
6:38 PM 86.0 °F 96.9 °F 77.0 °F 74% 29.97 in 10.0 mi WNW 6.9 mph - 0.00 in Thunderstorm Scattered Clouds
6:45 PM 87.1 °F 98.8 °F 77.0 °F 72% 29.97 in 10.0 mi West 6.9 mph - 0.00 in   Scattered Clouds
6:53 PM 87.1 °F 96.3 °F 75.0 °F 67% 29.98 in 10.0 mi West 11.5 mph - 0.00 in   Partly Cloudy
7:32 PM 84.9 °F 93.3 °F 75.0 °F 72% 29.97 in 10.0 mi NW 12.7 mph 19.6 mph N/A Thunderstorm Scattered Clouds
7:53 PM 82.0 °F 87.4 °F 73.0 °F 74% 29.98 in 10.0 mi WSW 3.5 mph - 0.00 in   Scattered Clouds
8:53 PM 82.0 °F 90.2 °F 77.0 °F 85% 29.98 in 10.0 mi Calm Calm - N/A   Clear
9:53 PM 81.0 °F 87.9 °F 77.0 °F 88% 29.98 in 10.0 mi SW 4.6 mph - N/A   Clear
10:53 PM 82.0 °F 90.2 °F 77.0 °F 85% 29.98 in 10.0 mi SSW 3.5 mph - N/A   Clear
11:53 PM 81.0 °F 87.9 °F 77.0 °F 88% 29.99 in 10.0 mi Calm Calm - N/A   Partly Cloudy